Regional Weather Roundup
Issued by NWS

Home | Current Version | Previous Version | Graphics & Text | Print | Product List | Glossary On
Versions: 1 2 3 4 5 6 7 8 9 10 11 12 13 14 15 16 17 18 19 20 21 22 23 24 25 26 27 28 29 30 31 32 33 34 35 36 37 38 39 40 41 42 43 44 45 46 47 48 49 50
000
ASUS43 KTOP 210708
RWRKS

WEATHER ROUNDUP FOR KANSAS
NATIONAL WEATHER SERVICE GOODLAND KS
100 AM CST SUN DEC 21 2014

NOTE:  "FAIR" INDICATES FEW OR NO CLOUDS BELOW 12,000 FEET WITH NO
SIGNIFICANT WEATHER AND/OR OBSTRUCTIONS TO VISIBILITY.

KSZ001>006-013>018-027>032-041>047-210800-
NORTHWEST KANSAS

CITY           SKY/WX    TMP DP  RH WIND       PRES   REMARKS
GOODLAND       CLOUDY    33  28  81 SW7       29.92F
HAYS           CLEAR     30  21  69 S7        29.97F
HILL CITY      PTCLDY    34  32  92 W6        29.96S
RUSSELL        PTCLDY    34  33  96 S14       29.96F WCI  25
$$

KSZ061>065-074>080-084>089-210800-
SOUTHWEST KANSAS

CITY           SKY/WX    TMP DP  RH WIND       PRES   REMARKS
DODGE CITY     CLEAR     31  29  92 S9        29.97F FOG
ELKHART          N/A    N/A N/A N/A MISG        N/A
GARDEN CITY    CLEAR     29  28  96 SE8       29.93F
GREAT BEND     CLEAR     34  28  80 S13       30.00F WCI  25
LIBERAL        PTCLDY    34  28  80 S10       29.96F WCI  26
PRATT          CLOUDY    36  36 100 S16       30.02F FOG     WCI  26
$$

KSZ066>073-081>083-090>101-210800-
SOUTHEAST KANSAS

CITY           SKY/WX    TMP DP  RH WIND       PRES   REMARKS
CHANUTE        CLOUDY    40  36  86 S10       30.12F WCI  33
COFFEYVILLE    CLOUDY    41  36  82 S7        30.13F
HUTCHINSON     PTCLDY    38  34  85 S10       30.03F WCI  31
MEDICINE LODGE   N/A     38  37  97 S12       30.04F WCI  30
NEWTON         CLOUDY    41  34  75 S12       30.05F
PARSONS        CLOUDY    41  37  86 S8        30.13F
WICHITA INTL   CLOUDY    43  37  79 S13       30.05F
WICHITA JABRA  CLOUDY    41  37  86 S13       30.05F
WICHITA MCCONL CLOUDY    41  37  86 S14       30.06F
WINFIELD       CLOUDY    41  38  89 S10       30.09F
$$

KSZ007>012-019>026-033>040-048>060-102>105-210800-
NORTHEAST KANSAS

CITY           SKY/WX    TMP DP  RH WIND       PRES   REMARKS
CONCORDIA      PTCLDY    36  35  96 SW7       29.98F
EMPORIA        CLOUDY    35  33  92 S10       30.07F WCI  27
LAWRENCE       PTCLDY    35  32  88 S8        30.09F
MANHATTAN      CLOUDY    42  38  85 SW14      30.04F
MARYSVILLE     MOCLDY    36  36 100 S7        30.02R
OLATHE IND     PTCLDY    33  32  96 S12       30.09F WCI  24
OLATHE EXE     PTCLDY    34  32  92 S10       30.09F FOG     WCI  26
SALINA         PTCLDY    39  36  89 S8        30.03S
TOPEKA BILLARD MOCLDY   N/A N/A N/A S6        30.08F
TOPEKA FORBES  PTCLDY    37  32  82 S12       30.06F WCI  29
$$



USA.gov is the U.S. government's official web portal to all federal, state and local government web resources and services.